Weather History for Main Pass 289C AWOS3 (Apache, LA

Change the Weather History Date:

Saturday, December 7, 2013

  Actual Average Record
Temperature  
Mean Temperature 62 °F -  
Max Temperature 66 °F - - ()
Min Temperature 57 °F - - ()
Degree Days  
Heating Degree Days 4    
Growing Degree Days 12 (Base 50)    
Moisture  
Dew Point 58 °F    
Average Humidity 95    
Maximum Humidity 100    
Minimum Humidity 88    
Precipitation  
Precipitation 0.00 in - - ()
Sea Level Pressure  
Sea Level Pressure 30.19 in    
Wind  
Wind Speed 19 mph (ENE)    
Max Wind Speed 23 mph    
Max Gust Speed 26 mph    
Visibility 8 miles    
Events      
T = Trace of Precipitation, MM = Missing Value Source: NWS Daily Summary

Daily Weather History Graph

Daily Weather History Graph

Search for Another Location

Airport:

Trip Planner

Search our weather history database for the weather conditions in past years. The results will help you decide how hot, cold, wet, or windy it might be!

Date:

Astronomy

Dec. 07, 2013 Rise Set
Actual Time 6:35 AM CST 4:55 PM CST
Civil Twilight 6:09 AM CST 5:21 PM CST
Nautical Twilight 5:39 AM CST 5:51 PM CST
Astronomical Twilight 5:10 AM CST 6:19 PM CST
Moon 10:35 AM CST (12/7) 10:19 PM CST (12/7)
Length of Visible Light 11h 12m
Length of Day
10h 20m
Waxing Crescent, 29% of the Moon is Illuminated
Dec 7
Waxing Crescent
Dec 9
First Quarter
Dec 17
Full
Dec 25
Last Quarter
Jan 1
New

Hourly Weather History & Observations

Time (CST) Temp. Dew Point Humidity Pressure Visibility Wind Dir Wind Speed Gust Speed Precip Events Conditions
12:15 AM 66.2 °F 64.4 °F 94% 30.12 in 10.0 mi NE 16.1 mph - N/A   Overcast
12:35 AM 66.2 °F 64.4 °F 94% 30.12 in 10.0 mi NE 16.1 mph - N/A   Overcast
12:55 AM 66.2 °F 64.4 °F 94% 30.12 in 10.0 mi NE 17.3 mph - N/A   Overcast
1:15 AM 66.2 °F 64.4 °F 94% 30.13 in 10.0 mi NE 18.4 mph - N/A   Overcast
1:35 AM 64.4 °F 62.6 °F 94% 30.12 in 10.0 mi NE 19.6 mph - N/A   Overcast
1:55 AM 64.4 °F 60.8 °F 88% 30.13 in 10.0 mi NE 20.7 mph - N/A   Overcast
2:15 AM 62.6 °F 60.8 °F 94% 30.13 in 10.0 mi NE 19.6 mph - N/A   Overcast
2:35 AM 62.6 °F 60.8 °F 94% 30.14 in 10.0 mi NE 18.4 mph - N/A   Overcast
2:55 AM 62.6 °F 60.8 °F 94% 30.13 in 10.0 mi ENE 18.4 mph - N/A   Overcast
3:15 AM 62.6 °F 60.8 °F 94% 30.13 in 10.0 mi NE 19.6 mph - N/A   Overcast
3:35 AM 62.6 °F 60.8 °F 94% 30.14 in 10.0 mi ENE 18.4 mph - N/A   Overcast
3:55 AM 62.6 °F 60.8 °F 94% 30.14 in - ENE 18.4 mph - N/A   Overcast
4:15 AM 60.8 °F 59.0 °F 94% 30.14 in 10.0 mi NE 20.7 mph - N/A   Overcast
4:35 AM 60.8 °F 59.0 °F 94% 30.15 in 10.0 mi NE 23.0 mph - N/A   Overcast
4:55 AM 60.8 °F 59.0 °F 94% 30.16 in 10.0 mi ENE 21.9 mph - N/A   Overcast
5:15 AM 59.0 °F 57.2 °F 94% 30.17 in 10.0 mi NE 20.7 mph - N/A   Overcast
5:35 AM 59.0 °F 57.2 °F 94% 30.18 in 10.0 mi NE 20.7 mph - N/A   Overcast
5:55 AM 59.0 °F 57.2 °F 94% 30.19 in 10.0 mi ENE 21.9 mph - N/A   Overcast
6:15 AM 59.0 °F 57.2 °F 94% 30.20 in 10.0 mi ENE 23.0 mph - N/A   Overcast
6:35 AM 59.0 °F 57.2 °F 94% 30.20 in 10.0 mi ENE 21.9 mph - N/A   Overcast
6:55 AM 59.0 °F 57.2 °F 94% 30.21 in 6.0 mi ENE 21.9 mph - N/A   Overcast
7:15 AM 57.2 °F 55.4 °F 94% 30.21 in 3.0 mi East 20.7 mph - N/A   Overcast
7:35 AM 57.2 °F 55.4 °F 94% 30.21 in 6.0 mi East 23.0 mph - N/A   Overcast
7:55 AM 57.2 °F 55.4 °F 94% 30.22 in 9.0 mi East 19.6 mph - N/A   Overcast
8:15 AM 57.2 °F 55.4 °F 94% 30.22 in 3.0 mi ENE 21.9 mph - N/A   Overcast
8:35 AM 57.2 °F 55.4 °F 94% 30.23 in 1.5 mi East 21.9 mph - N/A   Overcast
8:55 AM 57.2 °F 55.4 °F 94% 30.24 in 2.0 mi ENE 20.7 mph - N/A   Overcast
9:15 AM 57.2 °F 57.2 °F 100% 30.24 in 6.0 mi ENE 20.7 mph - N/A   Overcast
9:35 AM 57.2 °F 55.4 °F 94% 30.25 in 7.0 mi ENE 19.6 mph 25.3 mph N/A   Overcast
9:55 AM 57.2 °F 55.4 °F 94% 30.25 in 4.0 mi East 20.7 mph - N/A   Overcast
10:15 AM 57.2 °F 55.4 °F 94% 30.25 in 10.0 mi ENE 20.7 mph - N/A   Overcast
10:35 AM 57.2 °F 55.4 °F 94% 30.25 in 10.0 mi ENE 19.6 mph - N/A   Overcast
10:55 AM 57.2 °F 55.4 °F 94% 30.25 in 10.0 mi East 20.7 mph - N/A   Overcast
11:15 AM 57.2 °F 55.4 °F 94% 30.24 in 10.0 mi East 20.7 mph - N/A   Overcast
11:35 AM 57.2 °F 55.4 °F 94% 30.23 in 10.0 mi East 19.6 mph - N/A   Overcast
11:55 AM 57.2 °F 55.4 °F 94% 30.22 in 10.0 mi East 17.3 mph - N/A   Overcast
12:15 PM 57.2 °F 55.4 °F 94% 30.21 in 10.0 mi East 19.6 mph - N/A   Overcast
12:35 PM 57.2 °F 55.4 °F 94% 30.21 in 10.0 mi East 19.6 mph - N/A   Overcast
12:55 PM 57.2 °F 55.4 °F 94% 30.20 in 10.0 mi ENE 17.3 mph - N/A   Overcast
1:15 PM 57.2 °F 55.4 °F 94% 30.20 in 10.0 mi ENE 18.4 mph - N/A   Overcast
1:35 PM 57.2 °F 55.4 °F 94% 30.19 in 10.0 mi ENE 19.6 mph - N/A   Overcast
1:55 PM 57.2 °F 55.4 °F 94% 30.18 in 10.0 mi East 20.7 mph - N/A   Overcast
2:15 PM 57.2 °F 55.4 °F 94% 30.18 in 8.0 mi East 19.6 mph - N/A   Overcast
2:35 PM 57.2 °F 55.4 °F 94% 30.18 in 3.0 mi ENE 19.6 mph - N/A   Overcast
2:55 PM 57.2 °F 55.4 °F 94% 30.18 in 2.5 mi East 19.6 mph - N/A   Overcast
3:15 PM 57.2 °F 55.4 °F 94% 30.18 in 4.0 mi East 19.6 mph 25.3 mph N/A   Overcast
3:35 PM 57.2 °F 55.4 °F 94% 30.18 in 5.0 mi ENE 19.6 mph - N/A   Overcast
3:55 PM 57.2 °F 55.4 °F 94% 30.18 in 9.0 mi East 19.6 mph - N/A   Overcast
4:15 PM 57.2 °F 57.2 °F 100% 30.18 in 8.0 mi East 19.6 mph - N/A   Overcast
4:35 PM 57.2 °F 57.2 °F 100% 30.18 in 10.0 mi East 18.4 mph 26.5 mph N/A   Overcast
4:55 PM 57.2 °F 57.2 °F 100% 30.18 in 10.0 mi ENE 19.6 mph - N/A   Overcast
5:15 PM 57.2 °F 57.2 °F 100% 30.19 in 10.0 mi East 18.4 mph - N/A   Overcast
5:35 PM 59.0 °F 57.2 °F 94% 30.19 in 10.0 mi East 17.3 mph - N/A   Overcast
5:55 PM 59.0 °F 57.2 °F 94% 30.20 in 10.0 mi East 17.3 mph - N/A   Overcast
6:15 PM 59.0 °F 57.2 °F 94% 30.20 in 10.0 mi East 16.1 mph - N/A   Overcast
6:35 PM 59.0 °F 57.2 °F 94% 30.20 in 10.0 mi East 17.3 mph - N/A   Overcast
6:55 PM 59.0 °F 57.2 °F 94% 30.21 in 10.0 mi East 15.0 mph - N/A   Overcast
7:15 PM 59.0 °F 57.2 °F 94% 30.21 in 10.0 mi East 15.0 mph - N/A   Overcast
7:35 PM 59.0 °F 57.2 °F 94% 30.21 in 10.0 mi East 15.0 mph - N/A   Overcast
7:55 PM 59.0 °F 57.2 °F 94% 30.20 in 10.0 mi East 16.1 mph - N/A   Overcast
8:15 PM 59.0 °F 57.2 °F 94% 30.20 in 3.0 mi East 17.3 mph - N/A   Overcast
8:35 PM 59.0 °F 57.2 °F 94% 30.20 in 5.0 mi ESE 17.3 mph - N/A   Overcast
8:55 PM 59.0 °F 59.0 °F 100% 30.20 in 7.0 mi East 15.0 mph - N/A   Overcast
9:15 PM 59.0 °F 59.0 °F 100% 30.21 in 9.0 mi ESE 12.7 mph - N/A   Overcast
9:35 PM 60.8 °F 59.0 °F 94% 30.21 in 3.0 mi ESE 13.8 mph - N/A   Overcast
9:55 PM 60.8 °F 59.0 °F 94% 30.21 in 3.0 mi East 15.0 mph - N/A   Overcast
10:15 PM 60.8 °F 59.0 °F 94% 30.20 in 2.5 mi East 16.1 mph - N/A   Overcast
10:35 PM 60.8 °F 59.0 °F 94% 30.20 in 3.0 mi ESE 17.3 mph - N/A   Overcast
10:55 PM 60.8 °F 59.0 °F 94% 30.20 in 3.0 mi ESE 15.0 mph - N/A   Overcast
11:15 PM 60.8 °F 59.0 °F 94% 30.20 in 3.0 mi ESE 12.7 mph - N/A   Overcast
11:35 PM 60.8 °F 60.8 °F 100% 30.20 in 2.0 mi ESE 13.8 mph - N/A   Overcast
11:55 PM 60.8 °F 60.8 °F 100% 30.19 in 1.2 mi ESE 15.0 mph - N/A   Overcast